Regional Weather Roundup
Issued by NWS

Home | Current Version | Previous Version | Graphics & Text | Print | Product List | Glossary On
Versions: 1 2 3 4 5 6 7 8 9 10 11 12 13 14 15 16 17 18 19 20 21 22 23 24 25 26 27 28 29 30 31 32 33 34 35 36 37 38 39 40 41 42 43 44 45 46 47 48 49 50
000
ASUS43 KOAX 282310
RWRNE

WEATHER ROUNDUP FOR NEBRASKA
NATIONAL WEATHER SERVICE OMAHA NE
600 PM CDT SUN MAY 28 2017

NOTES: SATELLITE DATA IS BEING USED TO AUGMENT CLOUD COVER ABOVE
       12000 FEET.
       "FAIR" INDICATES FEW OR NO CLOUDS BELOW 12,000 FEET WITH NO
       SIGNIFICANT WEATHER AND/OR OBSTRUCTIONS TO VISIBILITY.

  * THESE STATIONS DO NOT REPORT WEATHER SUCH AS RAIN...SNOW OR FOG.

NEZ001>004-019>022-054>056-290000-
NEBRASKA PANHANDLE

CITY           SKY/WX    TMP DP  RH WIND       PRES   REMARKS
SCOTTSBLUFF    LGT RAIN  59  47  64 N23G38    30.17R
ALLIANCE       CLOUDY    62  41  46 N21       30.11R
CHADRON        LGT RAIN  59  48  67 W13G24    30.14R
GORDON         FAIR      64  47  54 W9        30.07S
KIMBALL        SUNNY     70  36  28 NW16G23   30.17F
SIDNEY         SUNNY     71  42  35 NW9       30.13F
$$

NEZ057>060-069>072-079>082-290000-
SOUTHWEST NEBRASKA

CITY           SKY/WX    TMP DP  RH WIND       PRES   REMARKS
NORTH PLATTE   MOSUNNY   77  50  38 N8        30.03F
IMPERIAL       MOSUNNY   77  36  22 W14G23    30.07F
LEXINGTON      PTSUNNY   76  42  29 W6        30.03F
MCCOOK         MOSUNNY   78  40  25 NW17G23   30.03F
OGALLALA       PTSUNNY   76  39  25 NW14G21   30.07S
$$

NEZ005>010-023>029-035>040-094-290000-
NORTH CENTRAL NEBRASKA

CITY           SKY/WX    TMP DP  RH WIND       PRES   REMARKS
VALENTINE      PTSUNNY   75  35  23 NW14      29.99F
AINSWORTH      MOSUNNY   74  35  24 NW18      30.00F
BROKEN BOW     SUNNY     77  38  24 NW10      30.00F
O`NEILL        PTSUNNY   75  33  21 NW15      29.96F
ORD            MOSUNNY   76  36  23 NW15G24   29.97F
THEDFORD       MOSUNNY   72  40  31 NW12      30.03S
$$

NEZ041-046>049-061>064-073>077-083>087-290000-
SOUTH CENTRAL NEBRASKA

CITY           SKY/WX    TMP DP  RH WIND       PRES   REMARKS
GRAND ISLAND   MOSUNNY   78  39  24 N17       29.98S
AURORA         SUNNY     79  34  19 N14G22    29.97F
HASTINGS       CLOUDY    75  48  38 W14       30.00F
HEBRON         PTSUNNY   79  41  25 N10       29.96R
HOLDREGE       MOSUNNY   74  42  31 NW5       30.02F
KEARNEY *      SUNNY     75  45  33 W6        30.01F
YORK           SUNNY     77  32  19 NW17G23   29.96S
$$

NEZ011>018-030>034-042>045-290000-
NORTHEAST NEBRASKA

CITY           SKY/WX    TMP DP  RH WIND       PRES   REMARKS
NORFOLK        SUNNY     75  36  24 NW17G24   29.92F
ALBION         SUNNY     76  37  24 NW16G22   29.96S
BLAIR          SUNNY     76  41  28 NW15G25   29.91S
FREMONT        SUNNY     78  38  23 NW16G24   29.92S
TEKAMAH        SUNNY     79  38  22 NW17G26   29.89F
WAYNE          PTSUNNY   76  38  25 NW17      29.90F
$$

NEZ050>053-065>068-078-088>093-290000-
SOUTHEAST NEBRASKA

CITY           SKY/WX    TMP DP  RH WIND       PRES   REMARKS
LINCOLN        SUNNY     81  36  19 NW18G26   29.93S
OMAHA EPPLEY   MOSUNNY   79  39  23 N23G30    29.89R
BEATRICE       SUNNY     81  41  24 N22G30    29.93S
FALLS CITY     MOSUNNY   79  46  31 W15G21    29.88F
NEBRASKA CITY  SUNNY     80  32  17 NW22G28   29.90R
PLATTSMOUTH    SUNNY     80  36  20 NW18      29.90S
$$

NEZ044-045-051>053-067-290000-
OMAHA AREA

CITY           SKY/WX    TMP DP  RH WIND       PRES   REMARKS
OMAHA EPPLEY   MOSUNNY   79  39  23 N23G30    29.89R
BLAIR          SUNNY     76  41  28 NW15G25   29.91S
FREMONT        SUNNY     78  38  23 NW16G24   29.92S
MILLARD        SUNNY     80  40  24 NW16      29.90S
OFFUTT AFB     SUNNY     78  39  24 W18       29.89R
PLATTSMOUTH    SUNNY     80  36  20 NW18      29.90S
WAHOO          FAIR      80  34  18 NW14G25   29.92S
$$




USA.gov is the U.S. government's official web portal to all federal, state and local government web resources and services.